Temp
-11 -11 -10 -10 -10 -11 -11 -11 -11 -11 -11 -11 -10 -11 -10 -11 -11 -11 -10 -10 -10 -10 -11 -10 -11 -11 -11 -11 -11 -11 -11 -11 -11 -11 -12 -12 -12 -12 -12 -12 -12 -12 -12
-11 -10 -10 -10 -10 -11 -11 -11 -11 -11 -11 -11 -10 -10 -10 -11 -11 -11 -10 -10 -10 -11 -11 -11 -11 -11 -11 -11 -11 -11 -11 -11 -11 -12 -12 -12 -12 -12 -12 -12 -12 -12 -12
-11 -10 -10 -10 -10 -11 -11 -11 -11 -11 -11 -11 -10 -10 -11 -12 -11 -10 -10 -10 -10 -11 -11 -11 -11 -11 -11 -11 -11 -11 -11 -12 -12 -12 -12 -12 -12 -12 -12 -12 -12 -12 -12
-10 -11 -11 -10 -11 -11 -11 -11 -11 -11 -11 -11 -10 -10 -11 -11 -11 -10 -10 -10 -10 -11 -11 -11 -11 -11 -11 -11 -11 -11 -12 -12 -12 -12 -12 -12 -12 -12 -12 -12 -11 -12 -12
-11 -11 -11 -11 -11 -12 -11 -11 -11 -11 -11 -11 -10 -11 -11 -11 -11 -11 -11 -11 -11 -11 -11 -12 -11 -11 -11 -11 -11 -11 -12 -12 -12 -12 -12 -12 -12 -12 -12 -12 -12 -12 -12
-12 -11 -11 -11 -11 -12 -11 -11 -11 -11 -11 -11 -11 -11 -11 -11 -11 -11 -11 -11 -11 -11 -12 -11 -11 -11 -11 -11 -11 -12 -12 -12 -12 -12 -12 -12 -12 -12 -12 -12 -12 -12 -12
-14 -13 -12 -12 -11 -12 -12 -12 -11 -11 -11 -11 -11 -11 -11 -11 -11 -11 -11 -11 -11 -12 -11 -11 -11 -11 -11 -12 -12 -12 -12 -12 -12 -12 -12 -12 -13 -12 -12 -12 -12 -12 -12
-12 -14 -13 -12 -12 -12 -12 -12 -11 -11 -11 -10 -11 -11 -11 -11 -11 -11 -11 -12 -12 -12 -11 -11 -11 -11 -12 -12 -12 -12 -12 -12 -12 -12 -12 -13 -13 -13 -13 -13 -13 -13 -13
-13 -14 -13 -13 -12 -12 -12 -12 -12 -11 -11 -11 -11 -11 -11 -11 -11 -11 -12 -12 -12 -11 -11 -11 -12 -12 -12 -12 -12 -12 -12 -12 -13 -12 -13 -13 -13 -13 -13 -13 -12 -12 -13
-15 -14 -15 -13 -13 -13 -12 -12 -12 -11 -11 -11 -11 -11 -11 -11 -11 -12 -12 -12 -11 -12 -12 -12 -12 -12 -12 -12 -12 -12 -12 -13 -13 -13 -13 -13 -13 -13 -13 -13 -13 -12 -13
-16 -14 -14 -14 -13 -13 -13 -12 -12 -12 -12 -12 -11 -11 -12 -12 -12 -12 -12 -11 -12 -12 -12 -12 -12 -12 -12 -12 -12 -12 -13 -13 -13 -13 -13 -13 -13 -13 -13 -13 -13 -13 -13
-16 -15 -15 -14 -14 -13 -13 -12 -12 -12 -12 -12 -12 -12 -12 -12 -12 -12 -11 -12 -12 -12 -12 -12 -12 -12 -12 -12 -12 -13 -13 -13 -13 -13 -13 -13 -13 -14 -13 -13 -13 -13 -13
-16 -15 -15 -14 -14 -13 -13 -12 -13 -12 -12 -12 -12 -12 -12 -12 -12 -12 -12 -11 -12 -12 -12 -12 -12 -13 -13 -12 -12 -13 -13 -14 -14 -14 -13 -13 -13 -13 -14 -14 -13 -13 -13
-15 -15 -15 -14 -14 -13 -13 -13 -13 -12 -12 -12 -12 -12 -12 -12 -12 -12 -12 -12 -12 -12 -12 -12 -12 -13 -13 -13 -13 -13 -13 -14 -14 -14 -14 -14 -14 -14 -14 -14 -14 -14 -13
-15 -14 -14 -13 -13 -13 -12 -12 -13 -12 -12 -12 -12 -12 -12 -11 -12 -12 -12 -12 -12 -12 -12 -12 -12 -12 -13 -13 -13 -13 -14 -14 -14 -14 -14 -14 -14 -14 -14 -14 -14 -14 -14
-15 -15 -14 -13 -13 -11 -12 -13 -12 -12 -12 -12 -12 -12 -12 -12 -12 -12 -12 -12 -12 -12 -12 -12 -13 -12 -13 -13 -13 -13 -13 -14 -14 -14 -14 -14 -14 -14 -14 -14 -14 -14 -14
-13 -13 -13 -12 -13 -12 -12 -12 -12 -12 -12 -12 -12 -12 -12 -12 -12 -12 -12 -12 -12 -12 -12 -12 -12 -13 -13 -13 -13 -13 -13 -13 -13 -14 -14 -14 -14 -14 -14 -14 -14 -14 -14
-12 -12 -12 -12 -12 -12 -12 -12 -12 -12 -12 -12 -12 -12 -12 -12 -12 -12 -12 -12 -12 -12 -12 -12 -13 -13 -13 -13 -13 -13 -13 -13 -13 -14 -14 -14 -14 -14 -13 -13 -13 -13 -13
-12 -12 -13 -12 -12 -12 -12 -12 -12 -12 -12 -12 -12 -12 -12 -13 -12 -13 -12 -12 -12 -12 -12 -12 -13 -13 -13 -13 -13 -13 -13 -13 -13 -13 -14 -14 -13 -13 -14 -14 -14 -14 -13
-12 -13 -12 -12 -12 -12 -12 -12 -12 -12 -12 -13 -13 -13 -13 -13 -13 -13 -12 -12 -12 -12 -12 -12 -13 -13 -13 -13 -13 -13 -13 -13 -13 -13 -13 -14 -14 -14 -14 -14 -14 -13 -13
-13 -12 -12 -12 -12 -12 -12 -12 -12 -12 -13 -12 -12 -12 -13 -13 -12 -12 -12 -12 -12 -12 -12 -13 -13 -13 -13 -13 -13 -13 -13 -13 -13 -13 -13 -14 -14 -14 -14 -14 -14 -13 -13
-12 -12 -11 -12 -12 -12 -12 -12 -13 -13 -12 -12 -13 -13 -13 -13 -12 -12 -12 -12 -12 -12 -12 -12 -12 -13 -13 -13 -13 -13 -13 -13 -14 -14 -14 -14 -14 -14 -14 -14 -14 -13 -13
-12 -12 -12 -12 -12 -12 -12 -13 -13 -13 -12 -13 -12 -13 -13 -12 -12 -12 -12 -12 -12 -12 -12 -12 -12 -12 -12 -13 -13 -13 -13 -14 -14 -14 -14 -14 -14 -14 -14 -14 -14 -14 -13
-12 -12 -12 -12 -12 -12 -12 -12 -13 -12 -12 -12 -12 -12 -12 -12 -12 -12 -13 -13 -13 -13 -12 -12 -12 -12 -12 -13 -13 -13 -13 -13 -13 -13 -13 -13 -13 -13 -13 -13 -13 -13 -14
-12 -12 -12 -12 -12 -12 -12 -12 -12 -12 -12 -12 -12 -12 -13 -13 -12 -13 -13 -13 -13 -13 -13 -13 -13 -13 -13 -13 -13 -13 -13 -13 -13 -13 -13 -14 -14 -13 -13 -14 -14 -14 -14
-12 -12 -12 -12 -12 -12 -12 -13 -13 -12 -12 -12 -12 -12 -12 -12 -13 -13 -13 -13 -13 -13 -13 -13 -13 -13 -13 -13 -14 -14 -14 -14 -14 -14 -14 -14 -14 -14 -13 -13 -13 -13 -14
Height
5673 5682 5690 5698 5707 5714 5721 5728 5734 5742 5746 5748 5752 5754 5757 5759 5762 5762 5763 5763 5762 5760 5761 5760 5757 5757 5757 5757 5756 5753 5750 5747 5744 5743 5741 5740 5738 5736 5734 5733 5733 5735 5736
5657 5666 5678 5687 5695 5703 5710 5717 5723 5731 5735 5738 5742 5745 5748 5750 5752 5753 5754 5755 5753 5753 5753 5752 5750 5751 5751 5750 5749 5746 5744 5741 5739 5738 5736 5735 5734 5732 5730 5730 5731 5732 5733
5640 5652 5663 5673 5683 5692 5700 5706 5712 5719 5724 5729 5732 5734 5737 5740 5742 5745 5746 5746 5745 5745 5745 5744 5744 5744 5744 5744 5742 5740 5737 5734 5733 5732 5731 5730 5729 5728 5727 5727 5728 5728 5731
5619 5634 5647 5659 5670 5680 5688 5694 5701 5707 5715 5718 5721 5724 5727 5730 5733 5736 5738 5737 5737 5737 5738 5737 5737 5737 5737 5736 5735 5733 5730 5728 5727 5725 5725 5724 5724 5724 5724 5724 5724 5724 5728
5597 5617 5632 5643 5654 5665 5674 5683 5689 5696 5702 5708 5712 5715 5718 5721 5725 5727 5728 5728 5729 5730 5731 5730 5730 5729 5728 5728 5727 5725 5723 5721 5720 5718 5718 5719 5719 5719 5720 5722 5723 5725 5728
5579 5599 5615 5627 5640 5653 5663 5670 5677 5684 5692 5699 5704 5707 5710 5713 5716 5718 5719 5721 5722 5723 5723 5723 5723 5721 5721 5720 5719 5717 5715 5715 5713 5711 5711 5711 5714 5715 5718 5720 5721 5724 5727
5564 5582 5600 5616 5628 5640 5648 5657 5667 5677 5684 5691 5696 5699 5703 5706 5708 5710 5712 5713 5715 5716 5716 5716 5715 5714 5713 5712 5711 5710 5709 5707 5705 5704 5703 5705 5708 5711 5714 5717 5720 5722 5724
5557 5572 5588 5603 5616 5628 5639 5650 5659 5668 5675 5683 5687 5691 5695 5698 5701 5703 5705 5707 5708 5709 5709 5708 5708 5707 5706 5705 5704 5703 5702 5700 5697 5696 5697 5700 5703 5708 5711 5714 5716 5718 5722
5543 5562 5578 5592 5608 5620 5631 5642 5651 5660 5669 5674 5679 5684 5688 5691 5694 5696 5698 5700 5701 5702 5702 5702 5701 5701 5699 5699 5698 5696 5694 5692 5692 5692 5694 5697 5700 5702 5705 5709 5712 5714 5718
5544 5559 5572 5586 5600 5613 5625 5635 5644 5653 5660 5666 5671 5676 5680 5685 5688 5690 5692 5694 5695 5695 5695 5695 5695 5694 5694 5692 5692 5690 5688 5687 5688 5690 5692 5694 5695 5699 5702 5705 5708 5710 5715
5545 5557 5570 5583 5595 5607 5617 5627 5637 5646 5652 5659 5665 5670 5675 5679 5681 5684 5686 5687 5688 5689 5689 5689 5689 5688 5688 5686 5685 5683 5683 5685 5686 5687 5689 5690 5692 5697 5700 5703 5706 5708 5712
5546 5557 5569 5581 5593 5602 5612 5622 5631 5639 5646 5653 5658 5665 5669 5673 5676 5678 5680 5682 5682 5683 5684 5684 5683 5683 5682 5680 5679 5679 5680 5681 5683 5684 5685 5686 5689 5693 5698 5701 5705 5708 5711
5548 5557 5568 5578 5588 5598 5608 5618 5626 5633 5640 5647 5652 5658 5662 5666 5670 5673 5675 5677 5677 5678 5679 5679 5679 5678 5675 5674 5675 5676 5677 5678 5680 5682 5683 5682 5688 5692 5696 5699 5702 5705 5708
5547 5556 5566 5576 5586 5596 5604 5612 5620 5625 5634 5643 5649 5653 5657 5661 5665 5667 5670 5672 5673 5674 5675 5675 5674 5672 5671 5672 5673 5674 5675 5677 5678 5680 5682 5684 5686 5690 5693 5696 5699 5702 5706
5548 5557 5566 5575 5584 5595 5601 5610 5616 5622 5631 5638 5643 5648 5653 5657 5660 5663 5665 5667 5669 5670 5670 5670 5669 5668 5668 5669 5671 5673 5674 5675 5677 5678 5679 5682 5685 5688 5692 5695 5698 5700 5703
5547 5555 5566 5576 5585 5585 5599 5609 5615 5622 5629 5635 5641 5646 5650 5653 5655 5658 5661 5663 5665 5666 5667 5666 5666 5666 5666 5668 5670 5672 5673 5674 5676 5678 5680 5683 5685 5687 5690 5693 5696 5698 5701
5549 5559 5568 5576 5584 5591 5599 5608 5615 5622 5628 5632 5637 5641 5645 5648 5651 5654 5656 5658 5660 5662 5663 5663 5664 5664 5665 5666 5669 5671 5673 5674 5676 5678 5680 5682 5684 5687 5689 5692 5694 5696 5698
5551 5560 5563 5572 5584 5591 5599 5608 5615 5620 5625 5630 5634 5638 5641 5644 5647 5649 5652 5655 5657 5659 5660 5661 5662 5662 5663 5665 5667 5669 5671 5673 5675 5677 5679 5681 5683 5684 5687 5689 5691 5693 5695
5553 5564 5567 5575 5586 5593 5601 5608 5614 5619 5624 5628 5631 5635 5637 5640 5643 5646 5649 5652 5655 5656 5657 5658 5659 5660 5661 5663 5665 5668 5670 5672 5674 5676 5678 5679 5681 5683 5685 5687 5688 5690 5691
5558 5569 5577 5584 5590 5595 5602 5608 5612 5617 5621 5625 5629 5632 5635 5639 5642 5644 5647 5649 5651 5653 5654 5655 5656 5658 5659 5661 5664 5666 5669 5671 5673 5675 5676 5678 5680 5681 5683 5684 5685 5687 5689
5562 5571 5580 5584 5590 5597 5602 5607 5612 5616 5620 5624 5627 5630 5634 5637 5639 5642 5644 5647 5648 5650 5651 5652 5654 5655 5657 5659 5662 5664 5666 5669 5671 5673 5674 5676 5677 5679 5680 5682 5683 5685 5686
5571 5577 5582 5587 5593 5597 5602 5607 5611 5615 5619 5622 5625 5629 5631 5634 5638 5640 5643 5645 5646 5648 5649 5650 5651 5653 5655 5658 5660 5662 5664 5667 5669 5671 5672 5674 5675 5676 5678 5679 5681 5682 5683
5575 5580 5584 5590 5594 5599 5602 5606 5610 5614 5618 5622 5627 5628 5631 5634 5637 5639 5642 5644 5646 5647 5648 5649 5650 5652 5655 5658 5660 5662 5664 5666 5668 5670 5671 5672 5673 5674 5676 5677 5678 5678 5678
5578 5583 5588 5592 5596 5599 5603 5606 5609 5614 5619 5622 5625 5628 5631 5633 5636 5639 5641 5644 5646 5647 5648 5649 5651 5653 5656 5659 5661 5663 5665 5666 5667 5668 5669 5670 5671 5672 5673 5674 5674 5674 5673
5582 5586 5590 5594 5598 5601 5604 5608 5612 5616 5620 5624 5626 5629 5632 5635 5637 5640 5642 5644 5646 5648 5650 5651 5653 5655 5657 5659 5661 5662 5664 5665 5666 5667 5668 5669 5669 5670 5670 5671 5671 5670 5670
5584 5588 5593 5596 5599 5603 5606 5610 5614 5618 5621 5625 5628 5631 5633 5636 5639 5641 5643 5644 5646 5648 5649 5650 5652 5654 5656 5658 5660 5661 5662 5663 5664 5665 5666 5667 5668 5668 5667 5667 5666 5666 5665
Wind_Speed
73 71 69 66 61 59 58 55 55 48 48 52 51 44 43 39 37 38 36 31 33 30 28 30 26 25 27 29 29 27 25 23 23 25 24 23 21 20 18 18 16 20 20
71 72 70 68 63 60 57 57 55 51 49 52 49 47 41 36 36 37 35 33 31 29 30 29 25 27 29 31 30 29 27 25 24 25 26 23 21 18 13 15 15 14 18
72 68 69 69 65 61 58 57 54 52 49 45 47 44 38 37 37 35 34 33 31 29 30 28 26 29 31 32 32 31 29 27 27 26 26 22 21 18 14 16 17 20 22
75 70 66 67 65 61 58 56 56 54 49 45 44 38 37 39 39 35 35 33 32 30 29 28 28 31 32 33 33 32 30 27 27 28 27 24 20 19 16 15 12 17 23
78 70 65 66 66 63 61 57 57 52 46 43 42 39 37 40 36 37 36 32 31 29 29 27 29 32 33 34 32 31 30 27 28 28 25 24 20 20 18 15 12 17 19
72 71 66 66 64 62 62 60 58 53 47 41 38 37 38 35 37 37 32 30 31 29 28 28 30 32 32 31 30 29 28 28 28 29 27 23 21 21 19 18 15 17 18
58 57 62 63 62 61 63 62 57 50 46 37 37 37 36 36 35 32 30 29 29 27 27 28 29 28 28 27 27 27 27 28 29 27 25 23 21 21 20 17 18 20 20
41 53 56 61 62 61 62 58 54 49 44 39 38 36 35 35 31 30 29 27 26 26 27 27 27 26 26 25 25 26 27 29 26 22 20 19 20 18 18 18 17 22 23
35 48 54 58 58 61 59 56 52 48 40 38 36 35 36 32 30 27 25 25 25 26 26 26 26 25 25 25 24 26 27 23 19 16 16 19 19 21 20 19 17 20 22
43 48 48 52 57 56 55 53 50 42 39 37 35 36 34 28 27 26 25 24 24 25 26 26 24 25 24 23 24 24 19 15 13 13 19 22 19 20 20 16 16 19 25
40 42 49 46 47 52 53 52 47 41 39 37 36 34 29 27 27 25 23 23 23 24 24 23 24 22 22 24 23 19 13 13 14 13 19 22 20 21 18 19 19 23 23
34 33 43 39 39 45 50 48 44 41 36 37 33 30 29 28 26 22 21 22 23 22 21 22 21 21 23 23 17 14 13 14 13 12 16 20 21 19 19 19 21 22 20
32 32 39 42 39 40 41 41 40 40 36 34 30 30 28 25 21 20 21 20 21 21 20 20 19 20 19 15 13 13 12 12 12 13 12 19 17 18 20 19 19 20 20
34 38 41 42 38 38 38 39 38 42 38 32 30 27 24 22 21 20 21 20 18 19 19 18 16 15 13 11 12 11 10 10 10 10 10 12 14 17 18 17 17 17 18
31 38 40 41 39 38 34 35 38 34 35 33 29 25 22 19 18 20 21 19 17 17 17 15 12 11 11 12 10 10 9 8 9 9 12 14 12 14 16 16 15 16 16
32 40 41 42 39 39 38 32 29 30 27 23 19 17 16 18 20 20 20 18 17 16 15 14 11 9 8 9 11 8 6 8 11 11 12 14 11 13 15 17 16 15 14
39 41 38 46 42 38 36 32 27 24 21 19 19 20 19 20 21 19 18 17 16 15 14 13 10 8 7 10 12 9 8 8 10 12 12 11 11 12 12 13 14 15 15
38 35 39 42 36 37 33 29 25 23 21 20 19 19 18 17 17 16 16 15 15 14 14 12 10 10 9 11 13 11 12 11 10 11 12 13 12 12 12 12 13 15 15
33 38 33 38 38 34 29 24 22 20 18 18 17 17 17 16 16 15 15 15 15 13 13 12 11 10 12 12 14 12 10 10 10 10 10 11 12 12 12 12 13 15 16
36 42 37 35 32 27 25 23 20 17 17 17 17 18 15 15 14 13 16 15 14 13 12 11 12 11 12 14 15 16 14 10 8 8 8 9 10 10 11 11 10 9 8
34 34 33 29 27 25 21 17 17 17 16 15 15 15 15 16 14 15 16 13 11 10 11 12 12 12 13 14 13 14 14 14 12 11 10 10 9 9 10 11 10 9 10
33 30 28 26 21 18 17 19 19 17 16 15 16 15 16 16 15 14 12 10 9 8 8 8 10 13 13 14 14 13 14 13 12 12 12 11 10 11 13 14 11 11 13
27 25 22 21 19 18 16 16 17 17 17 17 15 16 15 14 13 13 12 11 10 8 6 6 12 13 14 13 13 12 12 11 11 10 10 9 9 10 12 16 16 16 15
25 25 23 20 17 16 16 19 19 20 19 17 14 13 13 14 15 14 13 12 11 9 7 8 12 15 12 11 10 10 10 9 9 10 9 8 7 8 10 13 16 18 15
26 25 22 20 18 18 17 18 19 19 17 15 14 14 12 12 13 14 13 13 12 10 8 9 11 11 9 9 8 7 7 6 7 9 9 8 8 9 11 11 11 12 13
26 25 21 19 18 19 20 21 22 20 17 15 13 12 11 10 10 11 11 12 11 10 11 12 11 10 11 10 9 8 9 9 9 8 9 11 11 15 16 17 16 17 18
Wind_Direction
241 241 243 245 247 247 249 249 250 253 251 257 254 257 259 263 268 269 275 272 275 279 278 279 284 283 285 283 287 293 299 295 294 297 298 294 286 284 282 263 232 234 240
236 238 239 242 243 244 246 248 249 249 251 254 255 254 255 260 263 270 269 266 270 275 275 281 282 281 282 280 284 290 294 293 290 291 296 288 280 279 268 241 227 245 209
234 233 234 236 239 241 242 245 248 249 248 249 250 253 252 255 262 265 266 265 270 272 275 282 280 279 281 280 281 286 292 291 284 288 289 286 271 265 254 248 242 236 218
231 228 228 230 233 234 237 241 244 246 246 247 250 250 250 252 258 259 261 263 267 270 275 276 278 279 281 278 280 283 291 287 281 287 282 282 263 251 242 252 229 201 195
225 225 223 224 225 226 231 235 240 244 246 249 251 251 252 251 254 253 257 260 266 269 273 274 278 278 280 279 278 282 286 281 281 284 281 269 251 239 230 228 200 195 198
222 220 219 218 220 221 227 231 235 240 245 249 250 249 247 248 245 252 255 261 264 268 274 275 277 281 280 274 274 282 279 280 280 280 277 256 238 231 225 222 214 210 211
209 216 216 214 215 217 222 228 232 237 242 247 242 243 244 240 246 249 255 258 264 271 273 275 278 278 272 273 279 277 278 280 280 275 262 247 226 222 223 219 222 215 217
182 209 207 210 211 214 220 226 230 233 237 240 238 240 238 239 243 248 253 261 266 269 273 274 273 270 275 277 275 276 278 281 278 264 242 230 212 213 221 212 226 231 225
176 194 198 204 206 212 217 223 227 231 233 235 234 233 235 237 242 247 255 262 267 270 269 269 265 272 276 273 277 281 281 277 265 243 213 203 204 214 213 212 224 223 213
188 191 195 198 202 209 213 220 224 225 226 225 226 229 233 235 238 246 255 262 265 264 265 260 265 276 272 275 281 281 277 257 229 223 226 220 209 218 204 210 215 202 205
185 193 195 196 199 204 209 215 220 220 219 220 222 226 228 231 240 248 254 257 260 261 258 262 273 272 273 278 278 271 255 238 237 237 237 229 208 211 206 205 200 194 201
190 190 186 189 191 203 209 214 214 214 218 216 217 221 222 231 239 244 247 254 260 255 257 270 271 271 275 279 270 253 235 241 236 239 215 226 214 209 214 215 212 215 217
178 179 185 186 193 198 202 209 207 203 211 213 210 216 223 233 237 239 240 253 255 251 261 267 267 278 281 267 250 227 234 236 237 236 245 207 208 214 217 223 223 224 226
172 182 188 187 187 191 194 200 202 205 201 206 212 220 227 230 231 233 240 249 257 253 258 259 271 279 257 247 231 231 219 220 222 217 216 215 205 212 213 218 227 229 227
181 189 186 185 183 188 189 204 195 178 189 202 212 219 223 227 232 235 240 248 255 252 250 260 273 272 246 223 222 206 209 211 206 207 193 182 186 200 208 215 227 227 228
194 189 185 180 181 185 193 189 185 191 198 205 212 220 221 223 229 235 238 246 242 241 246 256 267 250 217 218 206 197 200 188 186 186 187 196 208 207 211 216 220 223 227
193 193 189 188 191 176 178 185 193 196 196 200 206 213 219 226 230 233 234 233 231 233 242 246 248 221 206 197 187 188 197 192 190 201 204 202 206 207 212 219 226 228 232
191 188 189 162 173 174 181 189 189 192 193 200 209 216 220 221 222 223 225 224 224 230 235 237 227 212 197 191 191 194 197 197 193 200 210 216 218 211 213 223 229 236 232
179 184 190 164 171 175 178 180 185 189 196 204 208 211 214 214 210 212 214 213 222 226 225 233 221 211 195 191 190 190 191 202 210 216 215 216 216 217 221 234 237 244 237
166 163 165 168 168 167 172 177 182 194 201 202 206 210 213 204 204 210 204 214 222 217 219 226 218 213 199 198 198 201 213 221 223 222 216 209 211 223 226 225 207 195 204
156 162 166 162 162 168 170 176 184 180 189 200 207 201 194 195 201 202 203 215 212 213 214 217 217 204 199 192 198 203 207 205 210 208 220 225 227 227 219 207 210 232 246
159 161 157 156 160 162 170 176 180 191 202 201 191 186 190 197 196 195 203 199 192 195 200 204 202 192 191 189 186 188 188 193 203 212 209 211 226 225 219 216 230 250 259
151 152 151 154 157 165 172 178 185 187 178 171 172 190 185 185 184 188 186 179 175 182 185 177 178 172 174 182 182 188 193 198 207 212 219 229 233 234 232 233 251 267 275
153 152 151 152 155 157 162 164 163 163 164 164 170 176 181 180 180 177 170 167 160 146 142 153 167 162 163 169 177 186 195 199 208 214 222 230 237 246 252 257 263 266 266
156 152 150 152 155 157 159 158 157 155 156 156 152 153 159 171 172 166 168 168 163 156 145 131 138 154 161 167 177 189 195 200 214 220 206 209 211 208 255 285 280 274 271
156 154 154 153 153 154 151 152 155 157 154 150 148 145 146 148 160 172 173 172 173 175 171 166 166 173 171 175 175 189 198 210 220 222 234 249 251 266 276 281 282 281 280